Location: Pel�-Koumbol�
(14.9505°N, 3.0798°W)
Time: 14:24:14
(UTC+00:00)

Cosmos 2278 Rocket - Pass Details

Date: 17 February 2020
Orbit: 840 x 846 km, 71.0° (Epoch: 04 April)

Event Time Altitude Azimuth Distance (km) Brightness Sun altitude
Exits shadow 04:05:33 28° 131° (SE) 1,525 3.8 -36.8°
Drops below altitude 10° 04:08:20 10° 147° (SSE) 2,459 5.0 -36.1°
Sets 04:10:51 0° 152° (SSE) 3,394 5.7 -35.5°
